Location: ?
(35.3436°N, 139.3168°E)
Time: 21:43:43
(UTC+00:00)

ADEOS - Pass Details

Date: 29 October 2020
Orbit: 793 x 793 km, 98.9° (Epoch: 24 November)

Event Time Altitude Azimuth Distance (km) Brightness Sun altitude
Rises 19:24:59 0° 10° (N) 3,300 6.9 -20.4°
Reaches altitude 10° 19:27:19 10° 8° (N) 2,367 6.1 -19.9°
Maximum altitude 19:32:31 70° 286° (WNW) 845 3.4 -18.8°
Drops below altitude 10° 19:37:40 10° 203° (SSW) 2,352 5.8 -17.8°
Sets 19:40:00 0° 201° (SSW) 3,278 6.6 -17.3°
